DMSP 5D-2 F11 DEB, 28302

Orbit data source: Space-Track

DMSP 5D-2 F11 DEB, 28302 is space debris in SSO originally from a launch on Thu, 28 Nov 1991 UTC launched from the Air Force Western Test Range (AFWTR). Debris objects in space refer to the collection of defunct objects orbiting the Earth. Examples of debris include non-operational satellites, rocket bodies, and fragments generated from explosions, collisions, or faulty payload assembly.

Loading next visibility...
Identifier
28302, 1991-082P
Orbit
SSO
Country
Flag of USUS
Related business
Manufacturer
Unknown
Mission
Spacecraft
Bus & Motor
Unknown
Mass
Unknown
Launch date (UTC)
1991-11-28 (34 years ago)
Launch vehicle
Unknown
Launch site
Air Force Western Test Range (AFWTR)
Object type
Payload
Rocket body
Debris
Shape & HBR
Unknown shape, 0.1 m
Radar Cross Section
Small (<0.1 m²)

Expand to show TLE details & history
Last TLE update: 15 hours ago

TLE from 15 hours ago
0 DMSP 5D-2 F11 DEB
1 28302U 91082P   26121.06339298  .00001479  00000-0  62646-3 0  9995
2 28302  98.6376 155.0729 0028864  24.9582 335.2987 14.26714364139797
Epoch: 2026-05-01T01:31Z
TLE epoch observation values (Epoch: 2026-05-01T01:31:17.153Z)
Latitude
-0.00002°
Longitude
-86.74959°
Altitude
786.837 km
Speed
7.47 km/s
True Right ascension
10h 20m 17s
True Declination
0° 00' 00"
Sunlit
Object was in daylight at epoch
Visualization orbit readout
Latitude
Unknown
Longitude
Unknown
Altitude
Unknown
Speed
Unknown
Apparent Right ascension
Unknown
Apparent Declination
Unknown
Sunlit
N/A
Visualization observer readout
Local Sidereal Time
00:17:58
Azimuth
Unknown
Elevation
Unknown
Doppler factor
Unknown
Orbital elements
Apogee altitude
820.599 km
Perigee altitude
779.162 km
Semi-major axis
7,178.018 km
Eccentricity
0.00289
Inclination
98.6376°
RAAN
155.0729°
Arg. of periapsis
24.9582°
True anomaly
335.16003°
Mean anomaly
335.2987°
Eccentric anomaly
335.22941°
Mean motion
3.56892 °/min
Orbital period
100.87 mins
BSTAR
0.00062646
Loading maneuver chart data...
Computing Atmospheric mass density...

Documentation

Showing up to 5 results
|